Wind_Speed
31 30 27 25 25 25 24 22 21 21 23 23 22 21 20 18 15 14 13 11 11 11 12 12 10 10 10 10 11 10 10 10 10 11 11 12 13 13 13 14 13 12 12 11
31 28 26 28 28 27 25 23 22 22 24 24 22 21 20 18 16 14 12 11 11 12 12 12 12 11 10 11 11 11 12 12 11 12 12 13 12 13 13 13 13 13 13 12
29 27 28 29 28 27 26 23 23 24 25 25 24 22 21 19 17 15 13 12 11 11 12 12 11 11 11 12 12 13 13 12 12 12 12 12 12 13 13 13 13 14 14 14
31 29 30 29 28 26 25 24 25 26 26 26 25 23 20 19 18 16 14 12 12 11 12 12 12 12 12 13 14 14 14 13 13 12 12 12 12 13 14 14 14 15 15 14
31 30 30 29 27 26 25 27 27 28 28 28 27 24 21 19 17 16 14 13 12 12 12 13 13 12 13 12 12 13 14 14 14 14 14 13 12 14 14 14 15 15 14 14
32 32 31 29 28 28 29 30 30 30 30 30 26 25 22 20 18 16 16 15 13 12 12 12 12 12 12 11 12 13 14 14 15 14 14 14 14 14 14 14 15 15 15 15
33 32 32 32 31 31 32 32 32 31 31 29 26 26 22 20 18 17 17 16 14 13 13 12 11 11 11 11 12 13 14 14 15 15 15 15 16 16 14 15 15 15 16 16
32 32 32 32 31 31 32 32 32 31 30 27 26 25 22 20 19 18 17 16 14 14 13 12 11 11 11 12 11 11 13 14 14 15 16 16 16 16 16 16 16 16 17 18
30 30 31 31 30 31 32 32 31 31 30 28 26 24 21 20 19 19 17 16 15 14 14 14 12 12 11 12 12 12 12 14 14 15 16 17 17 17 17 17 17 18 17 18
30 29 30 31 32 33 33 32 32 32 30 28 26 23 20 18 18 17 16 15 14 14 14 14 13 12 11 12 12 12 13 13 14 15 15 16 17 17 17 18 17 18 19 19
31 31 32 33 34 33 34 34 33 31 30 28 25 22 18 17 17 16 15 15 15 14 14 14 13 13 12 11 11 12 12 12 14 15 16 17 17 18 17 17 17 19 20 20
31 32 33 34 33 33 33 32 32 31 29 27 24 21 19 18 18 17 16 15 15 15 14 14 13 12 12 11 11 12 12 12 13 15 16 17 17 17 17 18 18 18 20 21
31 33 33 34 35 35 34 33 31 30 28 27 25 21 19 18 18 16 15 14 14 14 14 14 13 13 12 12 12 12 13 13 13 14 15 17 17 17 17 18 18 19 19 20
30 32 33 33 33 32 32 31 30 29 28 27 24 20 19 18 17 16 16 15 14 14 14 13 13 13 12 12 13 13 13 13 14 15 16 16 17 17 18 18 19 19 20 20
31 31 31 31 31 31 31 30 29 29 27 25 23 21 19 19 18 18 17 16 15 15 15 15 15 15 14 13 13 13 13 13 14 15 16 17 17 18 18 19 19 20 20 20
32 31 30 31 31 31 30 30 29 28 26 24 23 20 19 19 18 18 19 18 17 16 16 16 16 15 15 14 15 14 14 14 15 15 16 17 17 18 18 18 20 21 21 20
33 31 31 31 31 31 31 29 29 28 26 24 23 20 19 19 18 18 18 18 17 16 16 16 17 16 16 16 16 16 16 16 16 16 16 18 18 19 20 20 19 19 19 19
33 32 32 31 32 34 31 29 29 28 26 25 23 21 20 19 18 18 18 18 18 17 17 17 16 17 17 17 17 17 17 17 17 17 18 18 19 20 20 20 19 19 20 20
32 31 31 31 32 33 31 29 27 27 26 25 23 21 20 20 19 18 18 18 18 19 18 17 17 17 17 17 17 17 17 17 17 18 18 18 18 19 20 20 20 20 20 21
32 31 31 31 32 32 30 28 27 26 26 24 23 21 21 22 21 20 20 19 18 18 19 18 18 18 18 18 17 17 17 18 18 18 18 18 18 19 20 21 21 21 21 21
33 32 32 32 31 31 29 28 26 26 24 23 23 22 22 22 21 21 21 20 19 19 19 19 19 19 18 18 18 17 17 18 18 18 18 18 19 20 21 22 22 22 23 23
34 33 33 32 32 31 29 28 26 25 23 23 23 23 22 22 21 20 20 20 20 20 20 20 19 19 18 18 18 18 18 19 18 18 18 19 19 20 21 21 22 23 23 24
35 34 32 32 31 29 28 28 27 26 25 24 23 23 22 22 22 21 20 20 21 20 20 21 21 20 19 18 18 18 18 19 19 19 19 20 20 20 20 21 22 22 23 24
33 33 32 31 31 30 28 27 27 27 26 25 24 23 23 23 22 22 22 21 21 21 21 21 21 21 20 19 19 18 18 18 18 18 19 20 21 21 22 22 22 22 23 24
31 31 31 30 29 28 28 27 26 25 25 25 24 23 23 23 22 22 22 21 21 20 21 21 20 20 20 19 19 19 18 18 18 19 19 20 22 21 22 22 22 23 23 22
28 29 30 29 28 27 27 27 26 25 24 24 23 22 22 23 22 21 21 21 20 19 20 20 20 20 20 20 20 19 19 18 18 18 19 19 20 21 22 23 23 24 24 24
Wind_Direction
241 241 241 242 241 240 240 239 237 238 244 247 250 251 253 256 257 262 268 273 275 281 286 290 287 283 273 263 258 251 246 246 243 232 228 226 227 226 223 222 221 221 218 217
239 238 236 235 234 235 236 235 234 234 239 244 246 248 251 255 257 258 262 266 270 276 284 290 289 287 276 261 255 250 246 245 242 234 230 227 227 224 218 219 220 218 218 217
236 233 232 232 232 233 234 232 231 233 237 242 245 247 251 253 253 252 257 264 265 272 281 286 287 283 276 267 256 248 246 240 237 233 232 228 225 219 219 222 221 216 216 217
230 228 228 229 229 231 229 228 229 230 234 239 244 245 247 250 250 253 259 264 265 268 278 284 283 281 272 265 255 246 240 234 232 234 235 225 219 219 221 224 221 218 217 214
227 227 227 227 228 229 225 224 225 228 234 238 244 247 245 249 251 255 256 261 264 266 272 273 273 277 274 264 253 241 234 234 233 232 231 225 221 221 224 224 220 218 218 216
224 223 223 223 223 224 221 223 225 229 235 238 243 247 248 252 257 258 256 258 260 263 266 271 272 275 275 262 249 239 236 236 236 233 226 223 223 224 227 226 222 221 221 220
223 222 222 221 221 221 221 223 225 229 235 240 242 246 251 254 255 255 257 259 256 259 261 269 273 271 273 264 256 239 236 237 236 234 229 226 225 224 225 225 223 224 224 224
222 222 222 222 223 224 224 226 229 232 238 241 242 246 251 254 253 253 255 254 253 255 257 264 268 272 271 263 255 240 241 241 239 233 228 226 226 227 228 228 228 227 226 224
219 220 221 220 220 222 222 225 228 232 237 240 242 247 249 252 253 253 255 254 256 258 255 259 264 269 266 261 254 244 242 239 238 234 231 228 229 229 230 231 233 232 229 226
215 216 216 216 217 218 221 224 226 230 235 240 243 245 249 250 253 253 251 254 255 258 257 258 264 265 264 260 250 243 241 241 239 238 238 232 231 232 233 234 235 234 232 228
212 212 212 214 216 218 220 222 226 230 236 240 243 244 247 247 248 249 251 254 255 257 259 256 261 262 261 257 252 249 247 248 246 242 238 234 234 233 234 236 237 234 230 228
210 210 210 213 215 218 221 224 227 230 235 239 243 243 243 247 250 252 251 252 253 257 257 256 259 259 255 255 254 252 250 251 251 244 238 236 237 236 236 237 237 235 233 233
209 210 208 210 214 216 219 221 224 229 234 239 242 242 243 247 247 249 251 252 252 254 256 255 255 255 256 256 253 253 253 252 251 245 239 238 239 239 239 238 236 236 236 233
212 211 212 212 214 218 220 221 223 229 234 239 241 242 240 242 243 247 250 254 252 252 254 253 250 253 254 256 256 256 255 254 253 248 243 241 240 241 241 239 237 237 235 234
213 212 211 211 213 217 221 223 226 230 234 238 240 241 240 243 244 245 248 253 254 255 256 255 255 255 253 256 261 259 257 256 254 250 245 242 241 242 243 242 238 236 235 235
214 213 212 211 212 215 219 223 227 230 235 238 240 241 241 244 245 247 249 254 258 258 257 255 254 254 255 258 261 262 260 256 254 252 245 241 242 244 244 240 237 236 234 236
213 213 212 211 213 216 220 223 228 232 236 239 240 240 240 243 248 249 251 254 257 257 256 256 255 253 255 260 262 262 260 257 255 252 249 245 245 245 245 241 238 234 234 236
214 215 216 215 216 220 222 224 229 233 236 238 238 239 239 242 248 252 254 255 255 254 257 256 253 252 255 260 262 263 262 259 256 254 253 249 247 245 242 238 235 234 236 237
215 217 217 217 219 222 224 225 229 234 237 238 239 239 238 242 245 249 254 257 256 255 257 255 253 253 256 260 261 262 261 259 259 257 252 245 243 242 238 235 234 235 236 237
217 219 220 220 222 224 225 228 233 235 237 238 241 243 245 246 247 248 251 254 256 257 256 253 253 255 258 259 259 259 259 260 259 255 247 241 240 239 236 235 236 237 239 240
217 220 222 223 225 228 229 231 234 237 238 240 243 246 248 248 248 249 250 252 255 255 256 254 254 254 256 258 258 258 258 256 255 251 244 241 241 240 238 239 240 241 242 243
219 221 222 223 227 230 230 232 234 237 238 240 244 246 245 247 247 250 251 250 252 254 254 254 253 252 253 256 256 256 255 252 251 249 247 244 243 242 242 242 242 244 244 245
220 222 222 225 229 232 233 235 236 237 237 241 245 242 242 243 245 248 250 252 253 252 253 254 251 250 251 252 253 254 254 250 250 251 248 245 244 243 243 243 244 246 248 249
219 223 225 227 228 230 233 235 236 236 237 240 242 242 244 246 248 248 249 250 250 251 253 255 251 248 249 249 251 252 253 252 250 249 248 246 244 245 246 247 248 249 250 251
217 221 225 226 228 229 231 233 235 237 237 237 239 243 244 243 245 246 245 245 250 252 251 251 249 247 249 250 250 252 252 251 250 251 250 249 248 248 248 250 251 250 251 252
217 219 221 224 228 230 232 233 235 236 236 236 239 241 242 238 240 242 242 245 248 250 249 248 249 249 249 247 248 249 249 249 251 252 249 248 247 248 249 248 248 249 250 251
Height
5812 5817 5821 5825 5827 5830 5832 5835 5838 5840 5840 5842 5843 5845 5847 5848 5850 5851 5852 5852 5853 5853 5853 5852 5851 5851 5852 5852 5853 5854 5855 5856 5856 5857 5859 5860 5862 5864 5866 5868 5869 5871 5874 5876
5807 5812 5816 5817 5820 5824 5827 5831 5834 5836 5836 5838 5840 5842 5843 5845 5847 5848 5849 5849 5850 5850 5850 5849 5849 5849 5849 5850 5850 5851 5852 5853 5854 5855 5856 5857 5859 5861 5864 5866 5867 5869 5872 5874
5801 5807 5809 5811 5815 5819 5823 5827 5830 5831 5832 5833 5836 5838 5840 5842 5843 5845 5845 5846 5847 5847 5847 5846 5846 5846 5846 5846 5847 5848 5849 5850 5851 5852 5853 5854 5856 5859 5861 5863 5865 5867 5869 5872
5793 5798 5802 5806 5810 5814 5819 5822 5824 5825 5827 5829 5832 5834 5837 5838 5840 5841 5842 5843 5843 5844 5844 5843 5843 5843 5843 5843 5843 5844 5845 5846 5848 5849 5851 5852 5854 5857 5859 5861 5863 5865 5867 5869
5788 5792 5796 5801 5806 5810 5814 5816 5818 5820 5822 5825 5827 5829 5833 5834 5836 5838 5839 5840 5840 5841 5841 5840 5840 5840 5840 5839 5839 5840 5842 5843 5845 5847 5848 5850 5852 5854 5856 5859 5860 5862 5865 5867
5781 5785 5790 5796 5800 5804 5807 5810 5813 5815 5817 5820 5824 5826 5829 5831 5833 5835 5835 5836 5837 5838 5838 5837 5837 5837 5836 5836 5837 5838 5839 5841 5842 5844 5846 5848 5850 5852 5854 5856 5858 5860 5862 5864
5774 5779 5784 5789 5793 5797 5801 5805 5808 5810 5813 5817 5820 5821 5825 5827 5829 5831 5832 5832 5833 5834 5835 5835 5834 5834 5834 5834 5834 5835 5836 5837 5839 5841 5843 5845 5847 5849 5851 5853 5855 5857 5859 5862
5769 5774 5779 5783 5788 5792 5796 5800 5805 5808 5810 5814 5816 5817 5822 5823 5825 5826 5827 5829 5830 5831 5831 5831 5831 5831 5831 5832 5832 5832 5833 5834 5836 5838 5840 5842 5844 5846 5849 5850 5852 5854 5856 5858
5763 5769 5774 5779 5784 5787 5791 5795 5800 5803 5806 5809 5811 5814 5817 5818 5820 5822 5824 5825 5826 5827 5828 5828 5828 5828 5828 5829 5830 5830 5831 5832 5833 5835 5837 5839 5841 5843 5845 5847 5849 5851 5854 5856
5758 5764 5769 5773 5777 5781 5787 5791 5794 5797 5801 5804 5807 5810 5813 5815 5816 5818 5820 5822 5823 5824 5825 5825 5825 5825 5825 5826 5827 5827 5829 5830 5831 5832 5834 5835 5838 5840 5842 5844 5846 5848 5850 5852
5752 5758 5763 5767 5771 5776 5781 5785 5789 5793 5797 5800 5803 5809 5810 5812 5813 5815 5817 5818 5819 5820 5821 5822 5822 5822 5823 5823 5824 5825 5826 5827 5828 5829 5831 5833 5835 5837 5838 5840 5842 5844 5846 5849
5747 5752 5757 5762 5767 5772 5776 5781 5785 5789 5793 5796 5799 5806 5806 5808 5809 5811 5813 5814 5816 5817 5818 5819 5819 5820 5820 5821 5821 5822 5823 5824 5825 5826 5827 5829 5831 5833 5835 5837 5839 5840 5843 5845
5741 5746 5751 5756 5763 5766 5770 5775 5780 5785 5789 5791 5795 5802 5802 5803 5805 5807 5809 5810 5812 5813 5814 5815 5816 5817 5817 5818 5818 5819 5820 5821 5822 5823 5824 5826 5828 5829 5831 5833 5835 5837 5839 5841
5737 5742 5748 5753 5758 5762 5767 5772 5776 5780 5783 5787 5791 5795 5798 5799 5801 5804 5805 5806 5808 5809 5810 5812 5813 5814 5814 5815 5816 5816 5817 5817 5818 5819 5820 5822 5824 5826 5827 5829 5830 5832 5834 5837
5732 5738 5743 5749 5754 5758 5763 5767 5772 5776 5780 5784 5787 5790 5794 5796 5798 5800 5801 5803 5804 5805 5807 5808 5809 5810 5811 5811 5812 5813 5813 5814 5814 5815 5816 5818 5820 5821 5823 5824 5826 5828 5830 5832
5728 5734 5739 5745 5749 5753 5758 5762 5767 5771 5775 5779 5783 5786 5789 5791 5793 5795 5797 5799 5800 5801 5802 5803 5805 5806 5807 5807 5808 5809 5809 5810 5810 5811 5812 5814 5815 5817 5818 5820 5821 5823 5825 5828
5724 5730 5735 5740 5744 5748 5753 5758 5762 5767 5771 5775 5778 5783 5784 5787 5789 5791 5792 5794 5796 5797 5798 5799 5800 5801 5802 5803 5804 5805 5805 5806 5806 5807 5808 5810 5811 5812 5814 5815 5817 5819 5821 5824
5720 5725 5731 5736 5741 5744 5751 5754 5758 5762 5766 5770 5773 5777 5779 5782 5784 5786 5788 5790 5791 5792 5793 5794 5795 5796 5798 5799 5799 5800 5800 5801 5802 5803 5803 5804 5806 5807 5809 5811 5813 5815 5817 5819
5714 5720 5725 5730 5734 5739 5745 5749 5753 5757 5761 5765 5768 5771 5774 5777 5779 5781 5783 5785 5786 5787 5788 5789 5790 5791 5793 5794 5794 5795 5796 5796 5797 5798 5798 5799 5800 5802 5804 5806 5808 5811 5813 5815
5709 5715 5721 5725 5729 5734 5741 5745 5748 5753 5756 5760 5763 5766 5769 5772 5774 5777 5778 5779 5780 5781 5783 5784 5785 5786 5787 5788 5789 5790 5791 5792 5792 5792 5793 5794 5796 5797 5799 5801 5804 5806 5808 5810
5704 5709 5714 5719 5724 5729 5735 5740 5744 5749 5753 5756 5758 5761 5763 5766 5769 5771 5772 5774 5775 5776 5777 5779 5780 5781 5782 5783 5784 5785 5786 5786 5787 5787 5789 5790 5792 5793 5795 5797 5799 5801 5803 5805
5698 5704 5709 5714 5719 5726 5730 5734 5739 5743 5747 5749 5752 5755 5757 5760 5762 5764 5766 5768 5769 5771 5772 5773 5775 5776 5777 5778 5779 5780 5781 5782 5782 5783 5785 5786 5787 5789 5790 5792 5794 5795 5797 5799
5692 5699 5704 5710 5716 5721 5725 5729 5733 5737 5741 5744 5746 5749 5752 5754 5756 5759 5760 5762 5764 5766 5767 5768 5769 5771 5772 5773 5775 5775 5776 5777 5778 5779 5780 5781 5783 5784 5786 5787 5789 5790 5792 5793
5687 5693 5698 5704 5709 5714 5719 5723 5727 5731 5734 5738 5741 5743 5746 5748 5751 5753 5755 5757 5758 5760 5761 5762 5763 5765 5767 5768 5769 5770 5771 5772 5773 5774 5775 5777 5778 5779 5781 5782 5784 5785 5787 5788
5682 5688 5693 5698 5704 5709 5713 5717 5721 5725 5728 5732 5735 5737 5740 5743 5745 5747 5749 5752 5753 5755 5756 5757 5758 5760 5762 5763 5764 5765 5766 5767 5768 5770 5771 5772 5773 5775 5776 5778 5779 5780 5782 5783
5678 5683 5688 5694 5699 5703 5707 5711 5715 5719 5723 5726 5729 5731 5734 5736 5739 5741 5744 5746 5748 5749 5751 5752 5753 5755 5756 5758 5759 5761 5761 5763 5764 5765 5766 5767 5768 5770 5771 5773 5774 5775 5776 5777